Theta_e
339 339 339 338 338 339 344 346 345 346 347 347 347 348 348 348 347 347 347 347 345 340 340 340 341 343 346 346 346 346 346 344 343 344 345 344 344 345 345 345 344 345 344 343 341 342 343 343 342 342 342 342 342 335 334 334 334 336 335 338 338 333
338 338 337 337 337 339 342 344 340 341 342 345 346 347 345 343 347 340 347 341 341 343 336 337 339 347 342 345 344 346 346 345 344 344 344 345 344 344 345 345 345 345 345 340 336 329 334 344 342 341 343 342 334 333 333 334 334 335 336 335 336 335
337 336 337 337 338 339 339 338 336 338 343 345 345 345 341 342 338 340 341 341 341 338 336 336 337 343 344 346 345 345 346 345 345 344 344 344 345 344 344 345 345 345 342 337 330 328 328 328 339 343 343 334 331 332 333 333 333 334 333 334 334 337
337 336 337 340 341 338 336 336 338 338 338 339 340 341 339 341 342 342 340 337 335 336 332 331 344 345 343 340 339 346 346 345 345 345 344 341 342 344 344 343 343 343 337 334 331 329 328 329 332 332 330 330 331 331 332 332 333 332 331 334 331 338
338 338 340 341 342 340 338 337 338 339 339 338 339 338 338 340 343 343 341 337 334 335 332 330 330 332 333 335 335 336 338 336 336 336 342 336 333 333 335 332 330 334 333 335 332 329 329 329 332 331 330 330 331 331 331 333 332 331 331 332 334 338
340 339 341 342 341 342 339 338 338 339 337 336 336 336 336 336 339 340 340 339 337 328 330 329 329 330 332 334 335 335 335 335 333 335 340 336 333 333 333 332 333 333 335 336 335 332 332 332 330 330 330 330 330 331 331 331 331 331 331 331 334 338
339 339 340 342 342 341 338 338 337 337 335 334 332 333 333 333 336 337 338 340 335 331 329 330 331 331 333 333 334 335 334 334 334 334 337 336 334 333 333 334 332 332 333 335 335 334 331 330 330 330 330 329 330 330 330 330 330 330 330 331 334 338
339 340 339 341 341 340 339 337 337 341 336 338 333 331 331 334 336 336 336 336 337 332 330 331 331 332 333 333 334 334 333 334 334 332 334 335 334 333 332 333 333 332 334 334 334 334 333 330 330 331 331 330 329 329 330 330 330 330 330 330 333 338
339 340 339 341 340 340 339 337 339 338 336 341 331 332 333 335 335 336 336 336 336 330 330 329 330 331 331 332 332 333 333 333 332 332 331 332 333 332 331 331 331 332 332 332 332 332 333 332 331 331 331 331 329 329 329 329 329 329 329 330 331 335
340 339 340 340 339 338 337 338 338 338 336 339 331 331 333 332 333 335 335 336 337 334 331 330 330 330 331 332 332 332 334 332 332 331 331 331 331 331 331 329 329 331 332 332 333 333 335 331 331 332 331 331 330 329 329 329 329 329 329 330 331 334
339 341 340 339 338 338 337 337 337 335 336 334 332 332 331 331 331 332 333 335 335 336 334 332 331 331 332 332 331 332 332 332 332 332 331 331 330 330 330 330 330 330 330 331 332 332 333 331 328 329 330 330 330 329 328 329 329 329 329 330 330 332
339 341 339 338 338 337 336 335 334 333 333 333 333 330 330 331 332 330 332 332 332 332 335 335 335 334 334 333 332 331 331 331 332 333 333 333 332 330 330 330 330 331 331 331 332 331 331 331 327 327 328 329 329 328 328 328 328 329 329 329 329 331
339 340 336 336 336 335 335 334 332 332 334 335 332 332 332 333 333 332 332 331 332 333 335 334 334 334 335 334 333 332 332 332 332 333 333 333 334 333 330 329 329 331 330 330 330 330 330 327 327 328 329 329 328 328 328 328 328 328 329 329 329 330
338 337 335 333 334 333 332 333 336 336 337 336 334 333 334 334 334 334 333 333 333 334 336 336 335 335 334 332 331 332 332 332 332 332 333 333 333 333 332 331 330 329 332 330 328 328 328 328 329 328 329 329 328 328 328 327 328 328 329 329 329 330
338 336 337 335 333 332 332 335 335 335 335 336 335 334 333 333 333 333 333 333 334 334 335 335 336 336 335 334 332 331 331 332 332 332 332 333 333 332 332 331 331 330 329 329 329 329 329 328 327 329 329 330 328 328 328 327 328 328 328 329 329 330
336 335 333 335 333 333 333 333 334 336 331 334 336 336 335 334 334 334 334 334 334 334 335 335 335 336 335 335 334 333 333 332 332 332 332 332 332 332 332 331 331 331 329 329 328 328 328 327 327 328 328 329 329 330 328 328 328 328 329 329 329 329
334 332 333 332 333 333 333 333 334 335 334 334 335 335 336 335 335 334 334 334 334 334 335 335 335 336 336 336 335 334 334 333 333 332 331 331 332 332 331 331 331 331 330 329 328 328 327 326 327 328 328 328 329 330 328 328 328 328 330 329 328 329
335 333 332 332 332 332 334 333 332 334 337 334 333 333 334 335 335 334 334 334 334 334 335 334 335 335 335 336 335 334 334 333 332 331 330 329 330 330 331 331 330 330 331 329 329 328 327 327 327 327 327 327 328 329 329 329 329 331 328 327 327 328
335 334 331 333 335 334 334 334 333 331 330 329 329 329 329 331 332 332 332 333 335 334 334 334 335 335 335 335 336 336 335 335 334 333 332 331 331 330 329 330 330 330 331 330 329 329 329 328 326 326 327 327 327 328 329 329 330 329 328 328 328 329
334 334 334 332 332 332 333 333 332 331 329 328 327 329 328 329 329 330 332 333 335 335 334 335 334 334 335 335 335 336 335 335 335 334 333 332 331 331 330 329 329 329 329 329 330 330 330 328 327 326 326 327 326 327 328 329 329 329 328 328 328 329
334 334 333 332 331 329 329 330 331 330 329 329 329 329 330 329 329 331 332 333 333 334 333 333 334 333 334 335 336 336 335 335 335 334 333 332 333 332 332 331 331 331 329 328 328 329 329 328 326 324 325 325 325 326 329 329 327 328 328 329 328 328
332 331 330 330 329 328 325 325 322 321 327 326 326 327 329 329 330 331 331 331 332 332 332 332 333 333 334 334 334 335 335 335 335 334 333 334 333 334 333 331 330 328 330 328 328 329 328 326 321 322 321 320 323 324 327 328 326 327 328 328 328 328
330 328 328 331 328 328 328 329 328 326 327 327 327 330 328 328 330 330 330 330 331 330 331 331 331 333 333 334 334 334 334 335 334 334 333 332 332 331 332 331 331 329 328 328 328 330 328 328 324 323 323 321 318 318 321 324 326 327 327 327 328 327
330 330 329 331 331 329 331 331 332 333 331 331 331 331 329 330 330 330 330 330 331 330 330 331 332 333 335 334 334 334 334 334 334 334 333 331 331 330 331 331 331 330 329 325 325 326 330 328 326 323 317 318 318 318 314 317 320 324 327 327 327 327
328 328 329 331 332 332 331 329 330 329 328 329 330 330 329 328 327 329 329 328 329 330 330 331 332 333 335 335 335 335 334 334 334 334 333 331 331 331 332 332 331 330 328 326 324 326 327 328 327 328 325 318 314 313 315 316 319 321 325 324 326 327
326 327 327 328 329 330 328 326 325 325 325 325 325 326 325 325 326 327 327 329 330 329 329 329 330 331 332 334 334 334 334 333 333 334 333 332 332 331 331 330 331 330 329 329 326 325 325 327 328 327 327 326 323 318 317 318 319 314 322 326 327 327
325 325 327 328 329 329 327 326 326 326 325 324 323 325 328 329 328 329 329 328 329 329 328 327 327 328 328 330 331 332 333 333 333 333 333 332 331 330 331 331 332 331 329 329 328 324 324 325 325 326 327 327 326 324 323 320 316 316 315 321 325 326
324 324 325 326 326 327 325 325 325 325 325 324 324 324 326 328 328 329 327 327 327 327 327 326 326 326 327 327 329 330 331 332 332 333 333 331 330 331 331 331 332 331 331 330 328 326 325 326 323 322 326 325 326 326 326 324 322 319 317 315 319 326
322 323 323 324 325 325 326 325 324 324 323 324 325 325 327 328 327 327 326 326 325 325 325 325 325 326 326 326 328 328 329 330 330 331 331 331 331 331 331 330 329 329 329 329 329 328 326 325 324 324 323 324 325 324 324 324 324 323 317 315 316 319
321 322 323 323 323 323 324 324 323 323 322 322 323 323 324 323 323 324 324 324 323 322 322 323 324 326 326 327 328 328 328 328 328 328 330 330 331 330 330 330 330 329 330 329 330 328 325 325 326 326 325 324 322 323 323 322 322 322 321 320 316 317
320 321 321 321 322 322 322 322 322 322 321 321 321 320 319 318 319 319 320 321 322 321 321 322 324 325 325 326 327 328 328 328 328 328 328 328 329 330 330 330 330 329 329 328 328 327 326 326 326 325 325 325 324 323 322 320 320 321 320 318 317 317
319 319 320 320 320 320 321 320 320 320 320 319 318 317 315 315 316 317 319 319 321 321 321 322 322 322 322 324 325 326 327 327 327 327 327 328 329 329 330 330 329 329 329 329 329 328 327 326 325 325 325 326 326 326 325 324 324 323 321 320 320 318
316 317 317 317 316 317 317 317 317 316 316 318 316 315 315 314 315 316 318 318 318 318 319 318 319 319 320 321 323 323 323 323 324 326 327 327 328 328 328 328 328 328 329 329 329 329 327 327 327 325 325 327 327 326 325 326 326 324 324 323 321 318
314 315 315 314 314 313 313 313 313 313 314 315 313 313 313 313 314 315 316 316 316 316 316 316 316 317 318 319 321 322 321 317 318 320 322 322 324 327 328 328 328 328 328 329 330 329 329 328 328 328 328 326 326 326 326 327 327 326 324 323 321 320
311 312 312 312 311 311 311 311 311 311 311 312 312 311 311 312 312 312 313 313 313 314 313 313 314 315 315 316 318 319 317 314 315 316 316 314 316 319 320 324 327 328 329 330 329 329 329 329 328 328 328 327 327 327 328 328 328 326 326 325 323 322
310 310 311 310 309 309 309 309 309 309 309 310 311 309 309 309 310 311 310 310 310 311 311 311 312 312 312 314 314 317 314 312 312 312 313 311 311 312 314 318 320 323 325 328 328 328 328 329 328 328 328 329 328 327 328 328 327 327 327 326 325 324
309 309 309 308 308 308 307 307 307 307 308 307 307 307 307 307 308 309 309 308 309 309 309 309 309 311 310 310 311 314 313 310 309 309 309 308 308 309 310 312 313 315 317 317 320 324 327 327 328 328 328 328 327 328 328 328 328 328 327 327 326 326
Wind_Speed
5 5 5 4 4 5 7 11 9 11 10 10 9 10 9 9 8 7 6 6 6 5 4 3 2 1 5 4 6 5 5 3 2 2 3 4 4 5 5 5 6 7 8 9 8 8 8 9 10 10 11 11 11 6 5 4 4 4 4 3 2 2
5 5 4 4 3 3 4 7 4 4 4 6 8 8 5 3 5 2 6 6 4 4 3 3 3 4 3 1 2 4 4 3 2 1 2 3 3 4 5 5 6 7 9 9 7 5 4 6 10 10 10 10 6 5 5 5 4 4 4 3 2 3
5 4 5 4 3 3 5 4 4 3 3 5 4 4 3 3 4 5 5 4 3 3 3 2 1 1 1 2 1 2 3 2 1 0 1 1 2 3 4 5 6 7 10 8 4 4 4 3 4 10 7 5 4 4 5 5 4 4 4 3 3 4
5 5 5 4 4 4 4 4 4 4 3 3 4 4 4 4 4 4 4 3 3 3 3 2 4 6 5 2 2 3 2 2 1 2 3 4 5 4 6 6 6 7 5 4 3 3 4 3 3 4 4 4 3 4 5 4 4 4 4 4 4 6
5 5 5 4 4 4 4 4 3 3 3 3 4 4 4 4 4 4 4 3 3 3 2 2 2 2 3 2 2 3 3 2 1 2 3 2 3 3 3 3 3 3 3 4 3 3 3 3 3 4 4 4 3 3 3 3 3 3 4 4 4 6
5 5 4 4 4 4 5 3 3 3 3 3 4 4 4 3 4 3 3 2 1 3 3 3 2 2 2 1 1 1 1 2 2 2 2 1 2 2 2 2 3 3 2 3 3 2 2 3 4 3 3 4 4 4 3 3 3 3 3 3 4 7
6 5 5 4 4 3 4 3 3 3 3 3 3 3 3 3 3 3 3 3 2 0 2 1 1 1 1 0 2 2 2 1 1 0 1 2 3 2 2 2 2 2 3 1 3 3 3 3 4 5 4 4 4 4 4 4 4 4 4 3 3 9
5 5 5 6 4 4 4 4 3 4 3 3 3 3 2 3 3 3 2 2 3 2 1 1 3 3 2 1 2 2 2 2 1 1 1 1 3 3 3 2 3 3 3 3 3 3 3 3 4 4 4 4 4 4 4 4 4 5 4 3 4 7
6 6 5 5 5 4 3 3 2 3 3 3 2 2 2 3 2 2 2 2 2 3 3 2 3 3 3 3 2 1 2 2 2 2 1 1 1 3 3 3 3 3 3 4 3 3 3 2 3 3 4 5 5 5 5 4 5 5 5 4 4 5
6 5 5 5 4 4 3 3 3 3 2 2 2 3 3 2 2 2 1 2 2 2 2 3 3 2 1 3 4 3 2 2 2 1 0 2 2 2 4 4 4 4 4 4 4 3 2 3 3 4 4 4 5 6 5 5 5 5 5 4 4 4
6 7 5 4 4 4 4 3 3 3 2 2 2 3 2 2 2 1 1 2 2 3 2 2 2 2 2 2 3 3 4 3 2 0 1 1 2 3 3 3 4 4 4 4 4 2 2 1 2 2 4 4 5 5 5 5 4 4 4 4 4 4
5 5 5 4 5 4 3 3 4 3 2 2 2 1 1 1 0 0 1 2 2 2 1 2 2 2 2 2 3 3 3 3 4 2 1 2 3 2 4 4 3 3 4 4 4 3 2 2 3 2 3 4 4 5 5 5 5 5 4 4 4 4
4 5 5 4 4 3 3 3 3 3 2 2 1 1 1 1 2 2 2 2 2 3 2 2 2 2 3 2 2 3 3 3 4 3 1 4 3 3 3 3 3 1 3 3 3 3 1 1 2 2 2 3 3 4 4 5 5 4 4 4 3 3
4 5 4 3 4 4 3 3 3 3 2 2 1 1 2 1 2 2 2 2 2 2 3 3 3 3 2 2 2 3 3 3 3 3 2 3 3 3 4 4 4 3 3 2 3 2 1 3 3 2 2 3 3 4 4 5 6 5 4 4 3 3
5 4 5 4 4 4 3 3 3 2 2 2 2 1 0 1 2 3 2 2 2 2 3 4 4 4 3 3 3 3 3 4 3 3 3 3 4 3 4 5 4 5 4 3 2 3 3 4 4 5 3 3 4 4 4 5 5 5 5 5 4 3
5 5 5 4 4 3 3 3 2 3 1 1 1 0 1 2 2 2 2 2 2 2 3 3 4 4 5 4 4 5 5 3 4 3 3 3 4 5 4 4 5 4 5 4 3 6 4 4 4 5 4 3 4 5 5 5 6 6 5 4 4 3
5 6 4 4 3 4 3 3 2 2 1 1 1 1 1 2 2 2 2 2 2 2 3 3 4 4 5 5 4 5 5 3 3 4 3 4 5 5 3 5 5 5 6 4 4 7 6 3 4 4 4 4 4 5 6 6 7 7 5 5 5 4
5 7 5 4 3 3 3 3 2 2 1 1 1 2 3 3 3 3 3 3 3 3 3 3 4 4 4 5 5 6 6 4 2 2 3 4 4 3 4 4 6 6 4 3 5 7 7 2 0 5 5 5 4 5 6 6 6 6 6 6 6 7
5 5 4 4 4 4 4 3 2 2 2 2 2 2 2 2 3 3 3 3 3 3 3 3 4 4 4 4 5 6 5 4 3 3 3 3 4 3 4 4 6 6 5 5 8 7 7 5 7 7 5 6 4 6 5 5 5 6 6 6 6 7
4 4 5 5 4 4 3 2 2 3 3 3 3 3 1 2 2 3 2 2 3 3 3 4 4 4 4 4 5 5 4 4 3 3 4 4 5 4 5 5 6 7 6 5 7 6 6 6 6 7 7 6 4 4 5 5 6 6 5 5 6 6
4 4 4 4 3 2 2 1 1 1 1 3 2 2 3 3 3 4 3 3 2 3 3 3 3 3 3 4 4 4 4 4 3 3 4 5 6 6 6 5 5 4 6 6 6 6 6 4 3 2 3 4 2 3 4 6 7 6 6 6 6 7
4 4 3 3 2 2 1 1 1 1 1 2 3 4 4 4 3 2 2 2 2 2 3 3 2 3 4 4 4 4 4 5 4 4 4 5 6 6 5 5 5 5 4 6 5 5 4 4 3 5 3 2 3 3 4 5 5 6 6 5 6 6
4 3 2 3 2 1 2 2 1 0 0 2 1 2 2 2 3 5 5 5 4 3 3 3 3 3 3 3 3 4 4 4 4 4 4 4 5 6 6 6 6 6 6 4 5 3 5 7 4 3 2 1 3 2 3 4 4 6 7 7 7 8
5 3 3 1 2 2 2 2 1 0 2 3 3 2 3 6 7 7 7 6 7 6 5 4 3 3 2 3 4 5 5 4 4 4 4 5 5 5 6 6 7 7 7 6 3 4 6 7 5 4 2 5 2 2 2 6 7 6 7 8 9 9
5 5 4 4 3 3 4 5 4 4 3 2 2 5 6 6 5 4 5 7 7 7 7 6 5 4 4 4 4 3 4 4 4 4 4 5 5 6 6 6 6 7 6 6 7 3 4 6 8 8 5 2 1 1 4 2 3 4 6 7 10 10
6 5 5 5 3 4 5 5 5 5 5 5 5 5 6 6 5 6 6 4 6 7 7 7 6 6 5 5 5 5 4 4 5 5 4 3 5 6 6 6 5 6 7 6 6 6 5 5 8 7 8 6 2 2 2 2 1 3 1 6 6 8
6 5 5 6 5 5 6 6 6 6 5 4 4 4 2 2 3 3 4 6 5 7 7 7 7 7 6 6 5 5 5 5 5 4 4 5 5 5 6 6 6 6 6 5 6 8 8 5 4 7 9 9 8 5 4 3 5 1 4 2 6 7
6 6 5 5 7 5 6 5 6 6 5 4 4 3 3 3 3 3 5 5 5 6 7 6 6 6 6 6 6 6 6 6 6 5 6 5 5 5 5 5 6 6 6 6 6 7 7 6 7 4 8 8 8 9 8 6 4 6 4 3 3 5
8 6 5 5 6 7 6 6 4 4 6 3 3 3 3 3 4 4 5 5 6 6 6 6 6 6 6 7 7 6 5 5 5 5 4 5 5 6 7 6 7 7 7 6 6 7 7 6 5 7 4 7 8 9 8 6 4 3 5 5 6 5
8 5 4 5 6 6 5 5 5 5 5 4 3 3 3 4 4 4 6 6 5 5 5 6 6 6 7 7 7 6 6 6 6 5 5 5 5 6 6 6 7 8 8 9 5 4 4 5 5 6 6 6 5 6 5 5 5 5 5 5 7 5
6 6 7 7 7 7 6 6 5 5 5 4 4 4 4 4 4 6 6 6 5 5 5 5 6 6 7 8 7 7 7 7 6 6 5 6 5 5 6 6 7 7 7 7 6 5 5 6 6 6 7 6 7 7 7 8 8 7 7 5 5 8
8 7 7 7 8 7 6 7 6 6 6 5 4 4 4 4 4 4 4 5 4 5 6 5 6 6 8 9 8 8 8 8 7 7 7 6 5 5 5 5 5 6 6 6 6 6 6 6 6 6 7 7 7 7 7 7 6 7 8 8 8 7
8 7 8 8 9 9 8 8 7 6 6 5 5 4 4 4 4 4 4 5 6 5 5 6 6 7 9 10 8 8 9 9 8 8 7 7 6 6 5 6 6 6 6 7 7 7 6 5 5 6 6 7 7 7 8 8 9 7 7 7 7 8
8 7 7 9 9 9 9 8 7 7 6 6 6 6 6 6 5 5 5 6 6 6 6 6 7 7 8 8 7 7 8 9 8 9 10 10 9 8 7 6 6 6 6 6 6 7 6 7 7 8 7 7 7 8 8 8 9 8 8 7 8 9
9 8 9 9 8 9 8 9 8 8 8 7 7 6 6 6 7 7 7 7 7 7 6 6 7 6 8 7 8 7 9 8 9 9 9 9 8 9 9 8 6 6 5 5 6 6 7 7 8 7 7 7 7 6 6 7 8 8 8 9 8 7
10 9 9 9 9 8 8 8 9 9 8 7 6 6 6 6 6 7 7 7 8 8 7 7 7 7 8 7 8 7 8 8 8 9 8 8 8 8 8 8 8 9 8 7 8 8 7 7 8 8 8 7 7 9 8 8 8 8 8 8 9 8
10 9 10 10 9 9 9 10 9 9 8 7 7 7 7 8 7 7 7 7 7 7 8 8 7 7 8 8 8 8 7 8 9 8 9 10 9 9 9 7 7 8 9 9 9 9 8 8 8 8 8 9 8 8 9 9 9 9 10 9 9 9
Wind_Direction
118 119 118 117 122 127 140 139 138 139 145 148 147 140 135 140 138 137 130 117 80 62 52 40 61 98 120 115 127 128 115 106 78 38 30 30 18 20 22 27 31 43 57 73 79 75 96 123 140 139 141 143 129 112 126 120 121 124 119 114 119 267
116 121 116 105 111 123 124 123 119 133 137 145 145 142 136 135 132 78 106 72 71 67 55 50 29 51 43 88 123 137 137 129 134 84 27 12 11 3 10 12 17 30 56 74 67 46 48 121 145 145 147 127 110 126 125 132 130 138 129 129 151 229
128 121 108 104 108 97 96 100 104 111 120 134 131 111 93 99 64 81 76 80 81 85 79 62 8 68 112 94 32 209 148 155 138 91 52 354 358 354 355 5 5 30 55 61 57 48 54 39 135 150 130 109 124 128 133 135 144 147 149 156 177 240
132 123 121 125 104 101 103 108 111 97 84 87 91 102 89 88 73 84 98 85 77 70 60 31 39 29 30 38 1 355 224 153 50 8 355 23 7 4 357 6 13 32 53 55 46 53 64 42 89 83 101 122 130 143 147 151 156 158 160 172 171 235
130 129 128 132 120 108 111 108 101 101 103 94 93 90 87 84 89 86 85 71 71 79 67 46 29 22 35 50 12 357 5 33 54 78 30 12 3 349 7 349 349 25 60 76 64 45 64 77 88 113 124 137 138 145 147 153 155 162 177 179 186 209
128 127 127 128 126 146 130 116 110 123 106 87 94 96 91 88 104 96 102 100 70 79 84 59 32 19 24 76 124 110 33 20 27 3 1 343 329 336 337 345 343 349 30 99 115 119 104 116 129 140 143 147 154 162 168 169 174 178 190 197 205 192
134 132 131 129 127 133 128 130 122 126 120 94 96 104 84 82 87 99 115 131 119 65 41 73 87 76 10 62 203 193 183 146 153 172 298 310 312 322 326 334 337 328 325 103 129 140 155 162 162 161 168 169 166 170 182 186 185 186 196 206 225 194
139 141 143 148 142 144 135 135 154 151 119 145 126 109 104 105 107 115 124 119 121 108 107 41 312 305 218 173 233 237 193 183 198 227 189 288 310 321 326 330 327 319 322 324 115 132 157 195 201 177 167 177 180 184 193 195 194 191 190 203 229 205
150 152 145 149 158 141 140 132 127 109 132 160 84 103 121 121 113 129 141 155 148 140 138 156 237 275 325 297 281 245 201 230 197 237 141 316 337 306 319 326 317 316 315 322 341 123 157 194 208 196 174 184 191 195 195 197 202 199 192 188 207 233
150 142 147 149 142 139 145 139 123 117 163 127 107 114 130 123 137 145 167 196 210 165 164 178 200 227 246 281 297 312 285 241 239 280 116 325 282 282 294 322 318 311 314 317 323 330 104 163 202 212 203 188 194 198 194 192 198 208 195 186 211 242
150 153 141 149 147 127 140 139 112 103 101 93 117 115 103 115 140 154 191 222 232 230 181 173 172 190 218 238 265 281 284 312 301 322 120 216 209 234 249 250 273 286 295 301 297 302 309 155 182 219 225 205 199 186 193 194 201 201 199 201 205 232
140 141 142 141 154 141 127 123 113 100 89 71 86 89 104 84 61 243 211 227 246 242 241 177 183 203 217 230 239 250 276 303 285 246 129 242 263 227 241 249 232 229 251 258 277 287 277 191 169 212 245 222 188 187 189 186 192 196 200 198 200 238
133 131 134 137 123 110 112 108 108 112 112 95 75 52 342 342 295 292 291 270 268 254 250 251 241 245 258 221 234 242 253 255 267 289 129 237 278 279 271 280 285 275 246 258 297 317 12 51 212 239 239 233 184 191 183 177 181 187 197 192 199 234
119 117 123 112 109 106 110 109 101 94 108 92 82 18 316 304 298 307 301 271 273 276 288 289 296 281 228 232 219 236 243 250 250 262 261 237 243 264 290 297 270 257 258 236 259 245 270 274 265 246 235 215 206 192 177 182 177 183 182 190 181 210
120 117 125 107 100 108 105 102 100 114 126 125 134 127 140 278 244 262 281 291 287 290 290 288 284 276 258 236 245 245 235 244 238 227 222 222 247 236 241 247 240 260 270 282 307 278 237 234 241 247 234 197 201 183 193 190 176 177 185 184 172 192
117 112 97 99 97 91 105 98 111 132 110 134 112 257 249 262 285 295 287 297 296 292 292 285 275 264 267 254 253 258 250 216 210 203 224 212 232 248 232 241 249 246 268 256 284 268 223 234 237 251 234 205 201 185 191 186 193 195 191 172 177 168
104 89 79 91 83 88 93 95 89 69 123 121 172 219 230 202 222 236 242 252 262 277 286 280 261 254 253 260 257 262 266 236 189 196 203 211 223 242 248 255 258 227 215 250 232 261 268 231 247 261 255 234 216 199 196 194 194 197 174 180 166 178
102 111 119 97 97 96 89 88 77 62 59 137 231 220 215 200 206 220 213 231 236 241 249 248 249 246 249 258 261 264 280 282 260 220 209 197 224 218 221 218 256 268 245 196 239 249 254 164 257 265 261 243 221 215 215 205 197 188 186 176 182 197
99 97 92 106 97 93 94 78 69 48 351 291 255 250 218 225 222 215 213 218 220 223 237 235 236 238 248 254 264 264 265 278 277 273 265 261 256 240 234 229 240 257 247 219 243 237 246 234 239 256 247 248 222 213 219 212 198 191 193 190 193 206
98 97 103 87 88 71 67 44 10 347 350 351 338 324 294 250 270 273 281 246 244 242 237 239 230 229 235 257 261 265 272 286 286 275 267 265 265 262 260 249 242 245 248 229 223 244 246 243 233 211 225 238 234 234 215 206 198 196 194 176 200 214
105 117 110 111 86 89 81 59 328 313 294 292 296 313 322 339 339 310 308 301 273 262 250 250 243 212 240 254 259 263 266 276 277 282 281 279 270 264 251 249 254 234 252 253 231 220 235 198 198 229 201 222 262 228 228 215 210 200 199 188 202 215
96 88 81 98 106 112 103 152 161 204 211 255 2 16 351 16 337 313 298 288 275 261 258 254 263 239 253 249 265 275 271 271 265 255 263 269 278 276 274 260 253 260 228 250 260 193 204 128 229 230 225 260 235 217 215 219 224 220 212 199 200 210
61 77 81 97 110 137 180 172 164 222 150 356 74 38 13 326 3 18 19 6 343 320 292 283 259 247 243 251 257 265 265 261 255 268 269 257 260 270 267 262 255 259 273 222 241 196 178 187 220 198 241 234 241 237 235 233 230 231 215 210 206 214
75 76 86 135 154 185 167 152 152 116 109 112 72 30 45 36 28 25 24 10 18 7 352 328 322 289 263 246 262 277 272 265 273 268 276 281 277 259 255 251 250 252 248 267 234 236 193 200 207 135 253 212 224 157 308 238 217 227 211 208 207 216
74 70 52 55 60 69 72 57 55 57 66 68 43 38 41 29 22 21 26 19 9 10 9 2 349 336 316 300 288 284 296 303 309 310 295 274 279 278 272 262 262 257 240 245 260 244 219 203 210 203 200 110 27 286 222 268 193 243 183 208 215 212
68 60 55 51 56 85 74 79 67 59 46 48 50 28 38 19 9 22 17 350 11 18 16 11 5 356 346 332 326 320 314 309 312 304 302 303 295 288 284 280 260 260 266 241 240 255 258 208 221 222 229 228 154 197 255 248 172 272 199 221 207 206
75 67 62 60 45 65 74 73 74 85 90 91 92 50 33 14 28 21 17 26 17 19 20 13 3 2 355 343 333 326 317 310 301 302 300 281 277 274 273 272 271 260 254 250 236 252 252 244 194 221 231 228 224 206 196 173 220 7 294 200 208 208
72 66 55 72 66 55 75 71 79 75 72 66 71 72 23 32 29 28 34 30 25 26 18 16 5 360 0 356 350 343 335 326 323 311 306 288 271 269 272 272 274 278 262 250 248 249 261 249 229 221 215 231 228 227 218 221 197 202 198 246 233 207
72 60 49 47 77 75 69 66 64 76 82 43 45 43 26 23 29 15 40 23 30 22 17 8 7 3 1 2 359 348 336 331 329 325 320 312 301 293 290 295 295 290 289 263 243 240 239 247 213 240 211 231 233 233 228 226 229 191 213 219 252 223
76 67 61 58 57 56 73 85 76 57 72 68 44 42 41 36 28 20 39 24 14 17 8 10 0 5 5 3 360 359 355 346 336 326 323 313 310 304 296 292 295 301 303 306 300 287 248 246 236 243 227 235 232 241 237 219 212 218 228 220 244 237
72 68 55 50 52 55 50 54 71 73 69 62 51 53 54 38 22 37 38 17 12 1 11 12 1 5 8 1 1 2 358 354 351 344 331 322 316 310 307 303 302 301 299 298 295 281 250 237 237 241 243 239 240 236 230 224 221 218 219 210 218 245
61 57 55 53 55 49 49 46 46 50 54 46 44 56 62 56 34 53 44 30 9 14 16 6 6 6 8 360 2 3 1 358 1 352 342 328 320 315 310 302 297 296 298 291 286 280 272 261 242 238 236 238 242 236 242 245 237 222 218 224 217 236
73 60 56 54 55 49 46 40 34 38 34 34 37 38 42 44 24 44 40 38 23 18 14 11 5 7 4 359 360 8 6 6 2 355 349 345 336 329 326 318 311 305 299 303 302 301 287 262 253 250 250 243 243 241 233 236 245 239 227 225 219 235
81 66 64 62 60 59 53 46 42 40 36 36 40 36 33 30 20 30 30 37 31 22 15 16 3 11 357 354 1 9 17 8 4 2 8 0 353 345 339 328 324 316 312 301 294 290 284 275 265 257 253 258 247 238 234 235 236 235 232 226 227 226
77 68 72 68 63 61 54 47 43 42 39 36 36 34 32 28 27 30 25 29 26 23 19 9 8 3 359 353 1 13 18 7 6 8 11 4 355 354 350 336 334 324 314 300 298 293 292 294 286 272 269 273 278 269 260 248 243 238 228 228 230 228
78 75 73 69 63 61 56 52 43 43 38 37 34 34 32 27 30 32 32 29 26 23 18 7 7 2 4 360 0 12 17 11 7 8 4 360 358 357 348 350 350 344 339 339 324 315 306 298 295 291 286 280 276 277 272 263 256 250 241 232 232 231
76 71 69 67 64 59 56 52 43 43 39 36 36 35 31 27 23 28 33 30 29 25 19 17 8 6 5 6 3 6 17 12 10 6 5 6 358 355 353 356 349 345 350 344 334 325 313 301 291 279 272 268 264 261 260 261 254 246 244 237 231 228